Location: Peach Mountain Observatory
(42.3967°N, 83.9367°W)
Time: 18:48:23
(UTC-05:00)

deb Explorer IX - Visible Passes

Search period start: 24 January 2020 00:00
Search period end: 03 February 2020 00:00
Orbit: 548 x 1101 km, 38.8° (Epoch: 24 January)

Date Brightness Start Highest point End Pass type
(mag) Time Alt. Az. Time Alt. Az. Time Alt. Az.
25 Jan ? 21:12:26 10° SSW 21:12:36 11° SSW 21:12:36 11° SSW visible
26 Jan ? 20:50:04 10° SSW 20:51:50 18° SSW 20:51:50 18° SSW visible
27 Jan ? 20:27:44 10° SSW 20:31:02 25° S 20:31:02 25° S visible
28 Jan ? 20:05:24 10° SSW 20:10:10 30° SSE 20:10:10 30° SSE visible
28 Jan ? 21:51:00 10° WSW 21:51:32 13° WSW 21:51:32 13° WSW visible
29 Jan ? 19:43:05 10° SSW 19:48:26 30° SSE 19:49:15 29° SE visible
29 Jan ? 21:28:39 10° WSW 21:30:37 21° WSW 21:30:37 21° WSW visible
30 Jan ? 19:20:47 10° SSW 19:26:00 30° SSE 19:28:16 24° ESE visible
30 Jan ? 21:06:19 10° WSW 21:09:38 32° SW 21:09:38 32° SW visible
31 Jan ? 18:58:30 10° SSW 19:03:34 29° SSE 19:07:15 18° ESE visible
31 Jan ? 20:43:59 10° WSW 20:48:36 47° SW 20:48:36 47° SW visible
01 Feb ? 18:36:14 10° SSW 18:41:08 29° SSE 18:46:10 12° E visible
01 Feb ? 20:21:40 10° WSW 20:27:31 58° S 20:27:31 58° S visible
01 Feb ? 22:08:20 10° W 22:08:52 13° W 22:08:52 13° W visible
02 Feb ? 18:13:57 10° SSW 18:18:42 29° SSE 18:24:05 10° E visible
02 Feb ? 19:59:22 10° WSW 20:05:17 58° SSE 20:06:24 51° SE visible
02 Feb ? 21:45:59 10° W 21:47:45 20° W 21:47:45 20° W visible
